Amsterdam, Netherlands

7:06 AM CET on December 06, 2019 (GMT +0100)
Schiphol

Weather History for EHAM - November, 2019

Change the Weather History Date:

Friday, November 22, 2019

  Actual Average Record
Temperature  
Mean Temperature 44 °F -  
Max Temperature 50 °F 44 °F 55 °F (2003)
Min Temperature 37 °F 35 °F 23 °F (1998)
Degree Days  
Heating Degree Days 22    
Moisture  
Dew Point 40 °F    
Average Humidity 86    
Maximum Humidity 93    
Minimum Humidity 69    
Precipitation  
Precipitation 0.00 in - - ()
Sea Level Pressure  
Sea Level Pressure 29.61 in    
Wind  
Wind Speed 10 mph ()    
Max Wind Speed 16 mph    
Max Gust Speed -    
Visibility 7.9 miles    
Events Rain    
Averages and records for this station are not official NWS values.
T = Trace of Precipitation, MM = Missing Value Source: Averaged Metar Reports

Daily Weather History Graph

Daily Weather History Graph

Search for Another Location

Airport or City:

Astronomy

Nov. 22, 2019 Rise Set
Actual Time 8:13 AM CET 4:40 PM CET
Civil Twilight 7:34 AM CET 5:18 PM CET
Nautical Twilight 6:52 AM CET 6:01 PM CET
Astronomical Twilight 6:11 AM CET 6:41 PM CET
Moon 2:10 AM CET (11/22) 3:16 PM CET (11/22)
Length of Visible Light 9h 44m
Length of Day
8h 26m
Waning Crescent, 22% of the Moon is Illuminated
Nov 22
Waning Crescent
Nov 26
New
Dec 4
First Quarter
Dec 12
Full
Dec 19
Last Quarter

Hourly Weather History & Observations

Time (CET) Temp. Windchill Dew Point Humidity Pressure Visibility Wind Dir Wind Speed Gust Speed Precip Events Conditions
12:25 AM 37.4 °F 32.8 °F 35.6 °F 93% 29.65 in 5.0 mi ESE 5.8 mph - N/A   Partly Cloudy
12:55 AM 37.4 °F 32.1 °F 35.6 °F 93% 29.65 in 5.0 mi ESE 6.9 mph - N/A   Partly Cloudy
1:25 AM 37.4 °F 32.1 °F 35.6 °F 93% 29.65 in 5.0 mi ESE 6.9 mph - N/A   Partly Cloudy
1:55 AM 37.4 °F 31.4 °F 35.6 °F 93% 29.65 in 5.0 mi ESE 8.1 mph - N/A   Unknown
2:00 AM 38 °F - 36 °F 90% 29.65 in 5 mi SE 8.9 mph - -   Mist
2:25 AM 39.2 °F 32.5 °F 37.4 °F 93% 29.62 in - SE 10.4 mph - N/A   Clear
2:55 AM 39.2 °F 32.5 °F 37.4 °F 93% 29.62 in 6.2 mi SE 10.4 mph - N/A   Partly Cloudy
3:25 AM 39.2 °F 32.5 °F 37.4 °F 93% 29.62 in - SE 10.4 mph - N/A   Clear
4:00 AM 40 °F - 38 °F 88% 29.64 in 6 mi SE 8.9 mph - -   Partly Cloudy
4:25 AM 39.2 °F 33.0 °F 37.4 °F 93% 29.62 in 6.2 mi SE 9.2 mph - N/A   Partly Cloudy
4:55 AM 41.0 °F 34.3 °F 37.4 °F 87% 29.62 in 6.2 mi SE 11.5 mph - N/A   Partly Cloudy
5:00 AM 41 °F - 38 °F 85% 29.64 in 7 mi SE 11.2 mph - - Rain Light Drizzle
5:25 AM 41.0 °F 34.7 °F 39.2 °F 93% 29.62 in 6.2 mi SE 10.4 mph - N/A Rain Light Rain
5:55 AM 41.0 °F 34.7 °F 39.2 °F 93% 29.62 in 6.2 mi SE 10.4 mph - N/A   Partly Cloudy
6:00 AM 41 °F - 39 °F 89% 29.63 in 7 mi SE 11.2 mph - - Rain Light Drizzle
6:55 AM 41.0 °F 34.3 °F 39.2 °F 93% 29.62 in - SE 11.5 mph - N/A   Clear
7:25 AM 42.8 °F 37.0 °F 39.2 °F 87% 29.62 in 6.2 mi SE 10.4 mph - N/A   Scattered Clouds
7:55 AM 42.8 °F 36.6 °F 39.2 °F 87% 29.62 in 6.2 mi SE 11.5 mph - N/A   Mostly Cloudy
8:00 AM 43 °F - 40 °F 85% 29.64 in 9 mi SSE 13.4 mph - -   Partly Cloudy
8:55 AM 42.8 °F 35.8 °F 41.0 °F 93% 29.62 in 6.2 mi SSE 13.8 mph - N/A Rain Light Rain
9:55 AM 44.6 °F 38.4 °F 41.0 °F 87% 29.65 in 6.2 mi SSE 12.7 mph - N/A   Mostly Cloudy
10:25 AM 44.6 °F 38.8 °F 42.8 °F 93% 29.62 in 6.2 mi SE 11.5 mph - N/A   Partly Cloudy
10:55 AM 46.4 °F 40.4 °F 42.8 °F 87% 29.62 in 6.2 mi SSE 13.8 mph - N/A   Partly Cloudy
11:55 AM 48.2 °F - 42.8 °F 82% 29.62 in 6.2 mi SSE 16.1 mph - N/A   Partly Cloudy
12:25 PM 48.2 °F - 42.8 °F 82% 29.62 in 6.2 mi SSE 15.0 mph - N/A   Partly Cloudy
12:55 PM 50.0 °F - 42.8 °F 76% 29.62 in 6.2 mi SSE 15.0 mph - N/A   Partly Cloudy
1:00 PM 50 °F - 44 °F 72% 29.62 in 17 mi SSE 15.7 mph - -   Partly Cloudy
1:25 PM 50.0 °F - 42.8 °F 76% 29.62 in 6.2 mi SSE 15.0 mph - N/A   Partly Cloudy
1:55 PM 50.0 °F - 44.6 °F 82% 29.62 in 6.2 mi SSE 15.0 mph - N/A   Partly Cloudy
2:25 PM 50.0 °F - 42.8 °F 76% 29.59 in 6.2 mi SSE 13.8 mph - N/A   Partly Cloudy
2:55 PM 50.0 °F - 42.8 °F 76% 29.59 in 6.2 mi SE 12.7 mph - N/A   Partly Cloudy
3:00 PM 50 °F - 43 °F 69% 29.62 in 19 mi SE 11.2 mph - -   Overcast
3:25 PM 50.0 °F - 42.8 °F 76% 29.59 in - SE 9.2 mph - N/A   Clear
3:55 PM 48.2 °F - 42.8 °F 82% 29.59 in - ESE 10.4 mph - N/A   Clear
4:00 PM 48 °F - 42 °F 74% 29.61 in 19 mi ESE 11.2 mph - -   Partly Cloudy
4:25 PM 48.2 °F - 42.8 °F 82% 29.59 in - ESE 12.7 mph - N/A   Clear
4:55 PM 46.4 °F 41.1 °F 41.0 °F 81% 29.59 in - ESE 11.5 mph - N/A   Clear
5:00 PM 47 °F - 41 °F 74% 29.61 in 19 mi ESE 11.2 mph - -   Partly Cloudy
5:25 PM 46.4 °F 40.7 °F 41.0 °F 81% 29.59 in - ESE 12.7 mph - N/A   Clear
5:55 PM 44.6 °F 38.4 °F 41.0 °F 87% 29.62 in - ESE 12.7 mph - N/A   Clear
6:25 PM 44.6 °F 38.4 °F 41.0 °F 87% 29.59 in - ESE 12.7 mph - N/A   Clear
6:55 PM 44.6 °F 38.8 °F 41.0 °F 87% 29.59 in - ESE 11.5 mph - N/A   Clear
7:00 PM 44 °F - 40 °F 82% 29.62 in 12 mi ESE 13.4 mph - -   Partly Cloudy
7:25 PM 42.8 °F 36.2 °F 41.0 °F 93% 29.59 in - ESE 12.7 mph - N/A   Clear
7:55 PM 42.8 °F 36.6 °F 41.0 °F 93% 29.59 in - ESE 11.5 mph - N/A   Clear
8:25 PM 42.8 °F 37.0 °F 39.2 °F 87% 29.59 in - ESE 10.4 mph - N/A   Clear
8:55 PM 42.8 °F 36.2 °F 39.2 °F 87% 29.59 in - East 12.7 mph - N/A   Clear
9:25 PM 42.8 °F 37.0 °F 39.2 °F 87% 29.56 in - East 10.4 mph - N/A   Clear
9:55 PM 42.8 °F 37.0 °F 39.2 °F 87% 29.56 in - East 10.4 mph - N/A   Clear
10:25 PM 42.8 °F 36.2 °F 39.2 °F 87% 29.56 in - ESE 12.7 mph - N/A   Clear
10:55 PM 41.0 °F 33.9 °F 39.2 °F 93% 29.56 in - East 12.7 mph - N/A   Clear
11:25 PM 41.0 °F 33.9 °F 39.2 °F 93% 29.56 in - East 12.7 mph - N/A   Clear
11:55 PM 41.0 °F 33.9 °F 39.2 °F 93% 29.53 in - East 12.7 mph - N/A   Clear